AAL1909 KCLT-KRIC

Flight info

Callsign AAL1909
Flight time 1h 2m
Altitude 29000
Route BARMY5 RDU NEAVL DUCXS5
Aircraft A321/M-SDE3FGHIRWY/LB1

Departure

Time 2026-05-04 01:18
Airport Charlotte Douglas International Airport (KCLT)

Arrival

Time 2026-05-04 02:20
Airport Richmond International Airport (KRIC)
Time Latitude Longitude Altitude Speed Heading
2026-05-04 00:56 35.22445 -80.94114 733 ft 0 kts 89°
2026-05-04 00:57 35.21931 -80.94209 731 ft 0 kts 260°
2026-05-04 01:09 35.21931 -80.94208 732 ft 2 kts 260°
2026-05-04 01:09 35.21932 -80.94179 732 ft 4 kts 292°
2026-05-04 01:10 35.21917 -80.94153 730 ft 3 kts 320°
2026-05-04 01:10 35.21901 -80.94136 732 ft 4 kts 303°
2026-05-04 01:10 35.21894 -80.94109 730 ft 4 kts 251°
2026-05-04 01:10 35.21907 -80.94091 731 ft 4 kts 178°
2026-05-04 01:11 35.21932 -80.94093 731 ft 2 kts 175°
2026-05-04 01:11 35.21933 -80.94093 730 ft 0 kts 175°
2026-05-04 01:13 35.21928 -80.94092 731 ft 2 kts 175°
2026-05-04 01:13 35.21905 -80.94076 730 ft 6 kts 145°
2026-05-04 01:13 35.21865 -80.94042 732 ft 9 kts 144°
2026-05-04 01:14 35.21809 -80.93989 732 ft 8 kts 137°
2026-05-04 01:14 35.21815 -80.93935 732 ft 8 kts 60°
2026-05-04 01:14 35.21858 -80.93870 732 ft 12 kts 48°
2026-05-04 01:14 35.21925 -80.93780 732 ft 16 kts 47°
2026-05-04 01:15 35.22020 -80.93715 733 ft 17 kts
2026-05-04 01:15 35.22139 -80.93725 733 ft 17 kts 355°
2026-05-04 01:15 35.22264 -80.93736 733 ft 19 kts 355°
2026-05-04 01:15 35.22396 -80.93744 733 ft 19 kts 356°
2026-05-04 01:16 35.22476 -80.93745 734 ft 9 kts 18°
2026-05-04 01:16 35.22483 -80.93741 734 ft 0 kts 25°
2026-05-04 01:16 35.22484 -80.93740 734 ft 1 kts 28°
2026-05-04 01:17 35.22499 -80.93713 734 ft 7 kts 65°
2026-05-04 01:17 35.22501 -80.93656 736 ft 8 kts 109°
2026-05-04 01:17 35.22423 -80.93615 736 ft 27 kts 174°
2026-05-04 01:17 35.21968 -80.93576 737 ft 101 kts 176°
2026-05-04 01:18 35.21064 -80.93498 737 ft 157 kts 176°
2026-05-04 01:18 35.19911 -80.93396 1200 ft 165 kts 176°
2026-05-04 01:18 35.18763 -80.93290 1948 ft 164 kts 179°
2026-05-04 01:18 35.17624 -80.93168 2616 ft 169 kts 173°
2026-05-04 01:19 35.16459 -80.92605 2844 ft 195 kts 149°
2026-05-04 01:19 35.15598 -80.91196 2964 ft 225 kts 112°
2026-05-04 01:19 35.15473 -80.89181 3146 ft 256 kts 79°
2026-05-04 01:19 35.16021 -80.87020 3609 ft 272 kts 73°
2026-05-04 01:20 35.16565 -80.84787 4387 ft 276 kts 75°
2026-05-04 01:20 35.17071 -80.82519 5225 ft 278 kts 75°
2026-05-04 01:20 35.17566 -80.80247 5994 ft 282 kts 73°
2026-05-04 01:20 35.18076 -80.77916 6767 ft 286 kts 73°
2026-05-04 01:21 35.18599 -80.75560 7505 ft 289 kts 72°
2026-05-04 01:21 35.19136 -80.73174 8238 ft 293 kts 71°
2026-05-04 01:21 35.19690 -80.70756 8986 ft 297 kts 70°
2026-05-04 01:21 35.20252 -80.68314 9711 ft 301 kts 70°
2026-05-04 01:22 35.20827 -80.65817 10264 ft 313 kts 70°
2026-05-04 01:22 35.21443 -80.63157 10434 ft 336 kts 70°
2026-05-04 01:22 35.22097 -80.60323 10612 ft 357 kts 71°
2026-05-04 01:22 35.22776 -80.57355 11110 ft 365 kts 71°
2026-05-04 01:23 35.23460 -80.54337 11716 ft 370 kts 72°
2026-05-04 01:23 35.24146 -80.51286 12345 ft 375 kts 72°
2026-05-04 01:23 35.24845 -80.48189 12980 ft 379 kts 72°
2026-05-04 01:23 35.25424 -80.45020 13602 ft 386 kts 79°
2026-05-04 01:24 35.25852 -80.41760 14208 ft 390 kts 79°
2026-05-04 01:24 35.26283 -80.38465 14778 ft 394 kts 79°
2026-05-04 01:24 35.26720 -80.35134 15347 ft 399 kts 79°
2026-05-04 01:24 35.27161 -80.31773 15913 ft 403 kts 79°
2026-05-04 01:25 35.27607 -80.28366 16481 ft 407 kts 79°
2026-05-04 01:25 35.28056 -80.24919 17042 ft 412 kts 79°
2026-05-04 01:25 35.28509 -80.21446 17594 ft 417 kts 79°
2026-05-04 01:25 35.28969 -80.17924 18165 ft 421 kts 78°
2026-05-04 01:26 35.29433 -80.14365 18664 ft 426 kts 79°
2026-05-04 01:26 35.29922 -80.10774 19125 ft 430 kts 76°
2026-05-04 01:26 35.30758 -80.07259 19597 ft 431 kts 67°
2026-05-04 01:26 35.31779 -80.03791 20085 ft 435 kts 68°
2026-05-04 01:27 35.32812 -80.00286 20579 ft 439 kts 68°
2026-05-04 01:27 35.33852 -79.96752 21084 ft 443 kts 68°
2026-05-04 01:27 35.34899 -79.93180 21535 ft 448 kts 68°
2026-05-04 01:27 35.35953 -79.89568 21983 ft 452 kts 68°
2026-05-04 01:28 35.37008 -79.85926 22419 ft 456 kts 68°
2026-05-04 01:28 35.38075 -79.82241 22848 ft 460 kts 68°
2026-05-04 01:28 35.39154 -79.78531 23264 ft 464 kts 68°
2026-05-04 01:28 35.40243 -79.74786 23656 ft 469 kts 68°
2026-05-04 01:29 35.41328 -79.71053 23999 ft 473 kts 68°
2026-05-04 01:29 35.42449 -79.67197 24375 ft 475 kts 68°
2026-05-04 01:29 35.43546 -79.63416 24742 ft 478 kts 68°
2026-05-04 01:29 35.44657 -79.59570 25121 ft 480 kts 68°
2026-05-04 01:30 35.45773 -79.55699 25503 ft 483 kts 69°
2026-05-04 01:30 35.46894 -79.51815 25875 ft 485 kts 69°
2026-05-04 01:30 35.48025 -79.47903 26239 ft 487 kts 69°
2026-05-04 01:30 35.49158 -79.43974 26598 ft 490 kts 69°
2026-05-04 01:31 35.50295 -79.40022 26941 ft 492 kts 69°
2026-05-04 01:31 35.51432 -79.36051 27295 ft 495 kts 69°
2026-05-04 01:31 35.52573 -79.32058 27644 ft 497 kts 69°
2026-05-04 01:31 35.53716 -79.28045 27987 ft 499 kts 69°
2026-05-04 01:32 35.54864 -79.24009 28324 ft 502 kts 69°
2026-05-04 01:32 35.56016 -79.19955 28647 ft 504 kts 69°
2026-05-04 01:32 35.57173 -79.15887 28975 ft 506 kts 69°
2026-05-04 01:32 35.58560 -79.11917 29106 ft 501 kts 59°
2026-05-04 01:33 35.60368 -79.08346 29119 ft 488 kts 50°
2026-05-04 01:33 35.65024 -79.02477 29119 ft 478 kts 36°
2026-05-04 01:34 35.70030 -78.97098 29113 ft 478 kts 36°
2026-05-04 01:34 35.75018 -78.91675 29119 ft 479 kts 36°
2026-05-04 01:35 35.79971 -78.86268 29101 ft 479 kts 36°
2026-05-04 01:35 35.84958 -78.80833 29089 ft 479 kts 36°
2026-05-04 01:36 35.90117 -78.75721 29093 ft 474 kts 31°
2026-05-04 01:36 35.95427 -78.70882 29086 ft 474 kts 31°
2026-05-04 01:37 36.00737 -78.66041 29106 ft 475 kts 30°
2026-05-04 01:37 36.06046 -78.61193 28933 ft 474 kts 31°
2026-05-04 01:37 36.08682 -78.58772 28657 ft 471 kts 31°
2026-05-04 01:38 36.11307 -78.56361 28387 ft 469 kts 31°
2026-05-04 01:38 36.13923 -78.53960 28120 ft 467 kts 30°
2026-05-04 01:38 36.16515 -78.51576 27845 ft 465 kts 30°
2026-05-04 01:38 36.19113 -78.49189 27570 ft 462 kts 30°
2026-05-04 01:39 36.21682 -78.46826 27032 ft 460 kts 30°
2026-05-04 01:39 36.24243 -78.44473 26461 ft 457 kts 30°
2026-05-04 01:39 36.26783 -78.42138 25913 ft 454 kts 30°
2026-05-04 01:39 36.29314 -78.39808 25367 ft 451 kts 30°
2026-05-04 01:40 36.30976 -78.38276 25013 ft 450 kts 30°
2026-05-04 01:40 36.33483 -78.35964 24481 ft 447 kts 30°
2026-05-04 01:40 36.35971 -78.33665 23984 ft 445 kts 30°
2026-05-04 01:40 36.38441 -78.31380 23414 ft 443 kts 30°
2026-05-04 01:41 36.40897 -78.29104 22917 ft 438 kts 30°
2026-05-04 01:41 36.43326 -78.26852 22425 ft 434 kts 30°
2026-05-04 01:41 36.45738 -78.24616 21940 ft 430 kts 30°
2026-05-04 01:41 36.48127 -78.22402 21455 ft 427 kts 31°
2026-05-04 01:42 36.50491 -78.20206 20970 ft 424 kts 31°
2026-05-04 01:42 36.52850 -78.18015 20475 ft 422 kts 31°
2026-05-04 01:42 36.55193 -78.15836 19962 ft 420 kts 31°
2026-05-04 01:42 36.57521 -78.13667 19528 ft 417 kts 31°
2026-05-04 01:43 36.59842 -78.11502 19018 ft 416 kts 32°
2026-05-04 01:43 36.62152 -78.09346 18508 ft 414 kts 32°
2026-05-04 01:43 36.64441 -78.07207 17993 ft 410 kts 32°
2026-05-04 01:43 36.66684 -78.05114 17377 ft 405 kts 32°
2026-05-04 01:44 36.68913 -78.03031 16810 ft 396 kts 32°
2026-05-04 01:44 36.71085 -78.00998 16316 ft 386 kts 31°
2026-05-04 01:44 36.73206 -77.99014 15820 ft 377 kts 31°
2026-05-04 01:44 36.75277 -77.97077 15333 ft 368 kts 31°
2026-05-04 01:45 36.77304 -77.95181 14867 ft 362 kts 31°
2026-05-04 01:45 36.79313 -77.93304 14364 ft 360 kts 31°
2026-05-04 01:45 36.83299 -77.89573 13363 ft 356 kts 31°
2026-05-04 01:46 36.85271 -77.87722 12883 ft 353 kts 31°
2026-05-04 01:46 36.87225 -77.85880 12372 ft 350 kts 31°
2026-05-04 01:46 36.89160 -77.84054 11907 ft 347 kts 31°
2026-05-04 01:46 36.91083 -77.82241 11461 ft 344 kts 32°
2026-05-04 01:47 36.92960 -77.80468 11347 ft 332 kts 31°
2026-05-04 01:47 36.94767 -77.78757 11230 ft 320 kts 31°
2026-05-04 01:47 36.96509 -77.77105 11079 ft 309 kts 31°
2026-05-04 01:47 36.98222 -77.75550 11010 ft 300 kts 25°
2026-05-04 01:48 37.00017 -77.74218 11017 ft 300 kts 24°
2026-05-04 01:48 37.01812 -77.72887 11011 ft 300 kts 24°
2026-05-04 01:48 37.03606 -77.71552 11012 ft 300 kts 24°
2026-05-04 01:48 37.05399 -77.70214 11016 ft 300 kts 24°
2026-05-04 01:49 37.07191 -77.68875 10982 ft 300 kts 25°
2026-05-04 01:49 37.08979 -77.67536 10317 ft 299 kts 25°
2026-05-04 01:49 37.10761 -77.66201 9515 ft 297 kts 25°
2026-05-04 01:49 37.12589 -77.65080 8716 ft 288 kts 13°
2026-05-04 01:50 37.14481 -77.64574 8377 ft 273 kts 359°
2026-05-04 01:50 37.16379 -77.64560 8147 ft 275 kts 353°
2026-05-04 01:50 37.18279 -77.64621 7877 ft 272 kts 354°
2026-05-04 01:50 37.20147 -77.64674 7620 ft 271 kts 354°
2026-05-04 01:51 37.22056 -77.64727 7361 ft 270 kts 354°
2026-05-04 01:51 37.23937 -77.64779 7103 ft 270 kts 354°
2026-05-04 01:51 37.25785 -77.64830 6849 ft 269 kts 354°
2026-05-04 01:51 37.27650 -77.64884 6588 ft 268 kts 354°
2026-05-04 01:52 37.29516 -77.64940 6317 ft 268 kts 354°
2026-05-04 01:52 37.31374 -77.64997 6092 ft 267 kts 355°
2026-05-04 01:52 37.33239 -77.65054 6011 ft 267 kts 355°
2026-05-04 01:52 37.35103 -77.65109 6018 ft 269 kts 355°
2026-05-04 01:53 37.36975 -77.65163 6018 ft 269 kts 355°
2026-05-04 01:53 37.38845 -77.65218 6019 ft 269 kts 355°
2026-05-04 01:53 37.40714 -77.65275 6019 ft 269 kts 355°
2026-05-04 01:53 37.42586 -77.65331 6019 ft 269 kts 355°
2026-05-04 01:54 37.44453 -77.65387 6019 ft 269 kts 355°
2026-05-04 01:54 37.46326 -77.65437 6018 ft 269 kts 357°
2026-05-04 01:54 37.48163 -77.64935 5953 ft 277 kts 23°
2026-05-04 01:54 37.49703 -77.63441 5525 ft 282 kts 41°
2026-05-04 01:55 37.51228 -77.61907 5134 ft 280 kts 30°
2026-05-04 01:55 37.52863 -77.60597 4628 ft 277 kts 29°
2026-05-04 01:55 37.54498 -77.59319 4010 ft 276 kts 30°
2026-05-04 01:55 37.56137 -77.58064 3489 ft 274 kts 30°
2026-05-04 01:56 37.57749 -77.56844 3429 ft 270 kts 30°
2026-05-04 01:56 37.59365 -77.55624 3357 ft 271 kts 30°
2026-05-04 01:56 37.60986 -77.54399 3289 ft 271 kts 30°
2026-05-04 01:56 37.62608 -77.53178 3233 ft 271 kts 30°
2026-05-04 01:57 37.64209 -77.51970 3159 ft 263 kts 30°
2026-05-04 01:57 37.65729 -77.50819 3022 ft 253 kts 30°
2026-05-04 01:57 37.67231 -77.49682 2889 ft 243 kts 30°
2026-05-04 01:57 37.68649 -77.48622 2637 ft 239 kts 30°
2026-05-04 01:58 37.70071 -77.47542 2314 ft 238 kts 36°
2026-05-04 01:58 37.71086 -77.45958 2045 ft 231 kts 72°
2026-05-04 01:58 37.71321 -77.43976 2009 ft 230 kts 97°
2026-05-04 01:58 37.71047 -77.41991 2011 ft 231 kts 104°
2026-05-04 01:59 37.70732 -77.40006 2030 ft 230 kts 104°
2026-05-04 01:59 37.70417 -77.38027 2007 ft 230 kts 104°
2026-05-04 01:59 37.70111 -77.36104 1997 ft 215 kts 104°
2026-05-04 01:59 37.69830 -77.34334 2010 ft 197 kts 105°
2026-05-04 02:00 37.69564 -77.32663 2022 ft 192 kts 104°
2026-05-04 02:00 37.69298 -77.31026 2007 ft 189 kts 105°
2026-05-04 02:00 37.68968 -77.29427 1998 ft 186 kts 120°
2026-05-04 02:00 37.68126 -77.28265 2008 ft 180 kts 152°
2026-05-04 02:01 37.66945 -77.27876 2010 ft 176 kts 184°
2026-05-04 02:01 37.65755 -77.28171 2015 ft 175 kts 195°
2026-05-04 02:01 37.64573 -77.28531 2017 ft 175 kts 194°
2026-05-04 02:01 37.63388 -77.28890 2009 ft 175 kts 194°
2026-05-04 02:02 37.62207 -77.29248 2009 ft 175 kts 194°
2026-05-04 02:02 37.61039 -77.29601 2009 ft 175 kts 194°
2026-05-04 02:02 37.59852 -77.29961 1869 ft 176 kts 194°
2026-05-04 02:02 37.58716 -77.30306 1635 ft 158 kts 194°
2026-05-04 02:03 37.57669 -77.30623 1394 ft 152 kts 194°
2026-05-04 02:03 37.56648 -77.30935 1169 ft 149 kts 194°
2026-05-04 02:03 37.55640 -77.31245 1029 ft 150 kts 194°
2026-05-04 02:03 37.54625 -77.31554 842 ft 151 kts 192°
2026-05-04 02:04 37.53595 -77.31834 645 ft 152 kts 191°
2026-05-04 02:04 37.52571 -77.32151 419 ft 152 kts 194°
2026-05-04 02:04 37.51545 -77.32474 212 ft 152 kts 193°
2026-05-04 02:04 37.50597 -77.32750 173 ft 124 kts 193°
2026-05-04 02:05 37.49671 -77.32998 467 ft 152 kts 190°
2026-05-04 02:05 37.48518 -77.33274 995 ft 182 kts 190°
2026-05-04 02:05 37.47263 -77.33565 1796 ft 181 kts 192°
2026-05-04 02:05 37.46001 -77.33874 2126 ft 193 kts 192°
2026-05-04 02:06 37.44608 -77.34232 2021 ft 211 kts 192°
2026-05-04 02:06 37.43158 -77.34612 2012 ft 214 kts 193°
2026-05-04 02:06 37.41700 -77.34995 2015 ft 215 kts 192°
2026-05-04 02:06 37.40231 -77.35380 2013 ft 215 kts 192°
2026-05-04 02:07 37.38770 -77.35764 2011 ft 215 kts 192°
2026-05-04 02:07 37.37306 -77.36151 2019 ft 215 kts 193°
2026-05-04 02:07 37.35843 -77.36534 2019 ft 215 kts 193°
2026-05-04 02:07 37.34378 -77.36917 2018 ft 215 kts 192°
2026-05-04 02:08 37.32915 -77.37301 2016 ft 215 kts 192°
2026-05-04 02:08 37.31471 -77.37765 2021 ft 214 kts 198°
2026-05-04 02:08 37.30062 -77.38368 2020 ft 214 kts 201°
2026-05-04 02:08 37.28845 -77.39402 2021 ft 214 kts 230°
2026-05-04 02:09 37.28172 -77.41036 2020 ft 216 kts 256°
2026-05-04 02:09 37.28180 -77.42943 2012 ft 220 kts 285°
2026-05-04 02:09 37.28981 -77.44579 2021 ft 226 kts 318°
2026-05-04 02:09 37.30405 -77.45391 2021 ft 231 kts 354°
2026-05-04 02:10 37.31995 -77.45138 2023 ft 233 kts 13°
2026-05-04 02:10 37.33553 -77.44653 2019 ft 234 kts 13°
2026-05-04 02:10 37.35131 -77.44162 2021 ft 234 kts 13°
2026-05-04 02:10 37.36711 -77.43672 2020 ft 235 kts 13°
2026-05-04 02:11 37.38393 -77.43141 2024 ft 260 kts 13°
2026-05-04 02:11 37.40177 -77.42574 2018 ft 266 kts 12°
2026-05-04 02:11 37.41978 -77.42326 2004 ft 250 kts
2026-05-04 02:11 37.43650 -77.42393 2015 ft 236 kts 345°
2026-05-04 02:12 37.45109 -77.43253 2021 ft 231 kts 324°
2026-05-04 02:12 37.46490 -77.44282 2044 ft 232 kts 329°
2026-05-04 02:12 37.47912 -77.45244 2020 ft 232 kts 329°
2026-05-04 02:12 37.49339 -77.46198 2017 ft 232 kts 329°
2026-05-04 02:13 37.50770 -77.47152 2017 ft 233 kts 329°
2026-05-04 02:13 37.52159 -77.48179 2018 ft 232 kts 326°
2026-05-04 02:13 37.53506 -77.49221 2008 ft 216 kts 326°
2026-05-04 02:13 37.54737 -77.50160 2007 ft 201 kts 326°
2026-05-04 02:14 37.55915 -77.51058 2014 ft 196 kts 326°
2026-05-04 02:14 37.57075 -77.51936 2016 ft 194 kts 326°
2026-05-04 02:14 37.58278 -77.52715 2006 ft 197 kts 345°
2026-05-04 02:14 37.59632 -77.52618 2020 ft 200 kts 20°
2026-05-04 02:15 37.60747 -77.51624 2045 ft 198 kts 53°
2026-05-04 02:15 37.61432 -77.50126 2036 ft 197 kts 64°
2026-05-04 02:15 37.62074 -77.48599 2019 ft 197 kts 64°
2026-05-04 02:15 37.62715 -77.47079 2016 ft 196 kts 64°
2026-05-04 02:16 37.63354 -77.45559 2015 ft 196 kts 65°
2026-05-04 02:16 37.63703 -77.43927 2011 ft 192 kts 92°
2026-05-04 02:16 37.63407 -77.42331 2019 ft 186 kts 121°
2026-05-04 02:16 37.62579 -77.41126 2019 ft 181 kts 148°
2026-05-04 02:17 37.61520 -77.40269 2020 ft 181 kts 150°
2026-05-04 02:17 37.60464 -77.39422 2016 ft 175 kts 150°
2026-05-04 02:17 37.59491 -77.38639 1950 ft 161 kts 151°
2026-05-04 02:17 37.58572 -77.37901 1832 ft 154 kts 151°
2026-05-04 02:18 37.57675 -77.37181 1618 ft 152 kts 150°
2026-05-04 02:18 37.56788 -77.36469 1403 ft 151 kts 150°
2026-05-04 02:18 37.55916 -77.35767 1210 ft 150 kts 150°
2026-05-04 02:18 37.55038 -77.35062 1018 ft 150 kts 149°
2026-05-04 02:19 37.54156 -77.34357 811 ft 151 kts 149°
2026-05-04 02:19 37.53274 -77.33653 611 ft 150 kts 148°
2026-05-04 02:19 37.52390 -77.32951 416 ft 150 kts 147°
2026-05-04 02:19 37.51516 -77.32243 246 ft 150 kts 147°
2026-05-04 02:20 37.50675 -77.31574 197 ft 128 kts 147°
2026-05-04 02:20 37.50077 -77.31086 163 ft 50 kts 147°
2026-05-04 02:20 37.49891 -77.30938 165 ft 31 kts 148°
2026-05-04 02:20 37.49698 -77.30786 167 ft 25 kts 148°
2026-05-04 02:21 37.49571 -77.30746 166 ft 18 kts 216°
2026-05-04 02:21 37.49502 -77.30875 166 ft 18 kts 250°
2026-05-04 02:21 37.49560 -77.30978 167 ft 15 kts 321°
2026-05-04 02:21 37.49653 -77.31058 165 ft 18 kts 327°
2026-05-04 02:22 37.49762 -77.31144 165 ft 19 kts 328°
2026-05-04 02:22 37.49882 -77.31238 163 ft 22 kts 328°
2026-05-04 02:22 37.50012 -77.31343 165 ft 22 kts 327°
2026-05-04 02:22 37.50141 -77.31447 164 ft 22 kts 328°
2026-05-04 02:23 37.50269 -77.31547 167 ft 21 kts 328°
2026-05-04 02:23 37.50368 -77.31631 167 ft 14 kts 307°
2026-05-04 02:23 37.50384 -77.31754 168 ft 15 kts 271°
2026-05-04 02:23 37.50392 -77.31887 169 ft 16 kts 277°
2026-05-04 02:24 37.50402 -77.32033 169 ft 18 kts 273°
2026-05-04 02:24 37.50406 -77.32193 169 ft 19 kts 273°
2026-05-04 02:24 37.50420 -77.32359 170 ft 20 kts 273°
2026-05-04 02:24 37.50429 -77.32547 167 ft 23 kts 274°
2026-05-04 02:25 37.50441 -77.32715 168 ft 18 kts 273°
2026-05-04 02:25 37.50458 -77.32866 171 ft 17 kts 282°
2026-05-04 02:25 37.50502 -77.32992 171 ft 15 kts 331°
2026-05-04 02:25 37.50575 -77.33058 172 ft 11 kts 317°
2026-05-04 02:26 37.50590 -77.33078 172 ft 0 kts 315°